FW5790 Weather Reports


Display with metric or nautical units.
time (UTC)temp
F
wind
direction
speed
MPH
gust
MPH
rain 1hr
in
rain 24hr
in
rain mn
in
humidity
%
barometer
mb
20260504000046 59 0 0.0 2.0 0.00 0.00 0.00 56 1014.4
20260503234547 60 90 1.0 3.0 0.00 0.00 0.00 55 1014.4
20260503233045 61 0 0.0 3.0 0.00 0.00 0.00 51 1014.4
20260503231544 61 75 2.0 3.0 0.00 0.00 0.00 47 1014.5
20260503230056 61 88 0.0 2.0 0.00 0.00 0.00 49 1014.8
20260503224541 61 85 1.0 2.0 0.00 0.00 0.00 48 1015.1
20260503223046 61 82 2.0 3.0 0.00 0.00 0.00 45 1015.4
20260503221546 62 59 2.0 3.0 0.00 0.00 0.00 46 1015.6
20260503220046 62 87 2.0 4.0 0.00 0.00 0.00 43 1015.6
20260503214543 63 0 1.0 3.0 0.00 0.00 0.00 44 1016.1
20260503213043 63 82 2.0 4.0 0.00 0.00 0.00 42 1016.0
20260503211606 63 94 1.0 4.0 0.00 0.00 0.00 44 1016.2
20260503210047 63 64 1.0 3.0 0.00 0.00 0.00 42 1015.9
20260503204545 63 97 1.0 7.0 0.00 0.00 0.00 43 1016.3
20260503203048 63 0 1.0 3.0 0.00 0.00 0.00 41 1016.4
20260503201548 62 94 1.0 4.0 0.00 0.00 0.00 44 1016.8
20260503200058 62 96 1.0 5.0 0.00 0.00 0.00 41 1017.1
20260503194546 63 79 1.0 3.0 0.00 0.00 0.00 42 1017.5
20260503193056 62 42 2.0 5.0 0.00 0.00 0.00 40 1017.9
20260503191548 63 114 2.0 7.0 0.00 0.00 0.00 43 1018.1
20260503190048 63 76 1.0 6.0 0.00 0.00 0.00 43 1018.5
20260503184600 63 44 2.0 4.0 0.00 0.00 0.00 41 1019.1
20260503183045 62 44 2.0 5.0 0.00 0.00 0.00 45 1019.0
20260503181602 63 95 3.0 4.0 0.00 0.00 0.00 42 1019.3
20260503180059 63 97 1.0 3.0 0.00 0.00 0.00 41 1019.3
20260503174555 62 21 1.0 5.0 0.00 0.00 0.00 45 1019.5
20260503173057 61 63 2.0 8.0 0.00 0.00 0.00 38 1019.8
20260503171544 62 212 2.0 3.0 0.00 0.00 0.00 42 1019.9
20260503081546 34 0 0.0 0.0 0.00 0.00 0.00 87 1020.0
20260503071552 35 0 0.0 0.0 0.00 0.00 0.00 87 1019.7
20260503054543 37 0 0.0 0.0 0.00 0.00 0.00 85 1020.2
20260503053047 37 0 0.0 0.0 0.00 0.00 0.00 85 1020.1
20260503051546 38 0 0.0 0.0 0.00 0.00 0.00 84 1020.2
20260503050045 38 0 0.0 0.0 0.00 0.00 0.00 83 1020.1
20260503044548 38 0 0.0 0.0 0.00 0.00 0.00 83 1020.2
20260503043054 39 0 0.0 0.0 0.00 0.00 0.00 81 1020.3
20260503041547 39 0 0.0 0.0 0.00 0.00 0.00 81 1020.1
20260503040052 39 0 0.0 0.0 0.00 0.00 0.00 80 1020.1
20260503034544 40 0 0.0 0.0 0.00 0.00 0.00 80 1020.1
20260503033043 41 0 0.0 0.0 0.00 0.00 0.00 80 1020.1
20260503031547 41 0 0.0 0.0 0.00 0.00 0.00 80 1020.0
20260503030112 42 0 0.0 0.0 0.00 0.00 0.00 78 1020.0
20260503024557 43 0 0.0 0.0 0.00 0.00 0.00 77 1019.9
20260503023051 44 0 0.0 0.0 0.00 0.00 0.00 76 1019.7
20260503021542 45 0 0.0 0.0 0.00 0.00 0.00 75 1019.6
20260503020041 45 0 0.0 0.0 0.00 0.00 0.00 74 1019.3
20260503014601 46 0 0.0 0.0 0.00 0.00 0.00 72 1019.2
20260503013052 46 0 0.0 0.0 0.00 0.00 0.00 72 1019.0
20260503011553 47 0 0.0 0.0 0.00 0.00 0.00 72 1018.6
20260503010050 47 0 0.0 0.0 0.00 0.00 0.00 72 1018.5
20260503004546 48 0 0.0 0.0 0.00 0.00 0.00 71 1018.5
20260503003118 49 0 0.0 0.0 0.00 0.00 0.00 71 1018.3
20260503001542 49 0 0.0 0.0 0.00 0.00 0.00 68 1018.2